Weather History for Mora, MN

Change the Weather History Date:

Wednesday, October 17, 2012

  Actual Average Record
Temperature  
Mean Temperature 52 °F -  
Max Temperature 64 °F 56 °F 84 °F (1947)
Min Temperature 39 °F 29 °F 14 °F (1939)
Degree Days  
Heating Degree Days 14    
Growing Degree Days 2 (Base 50)    
Moisture  
Dew Point 43 °F    
Average Humidity 78    
Maximum Humidity 93    
Minimum Humidity 52    
Precipitation  
Precipitation 0.00 in - - ()
Sea Level Pressure  
Sea Level Pressure 29.24 in    
Wind  
Wind Speed 5 mph (SSW)    
Max Wind Speed 21 mph    
Max Gust Speed 29 mph    
Visibility 10 miles    
Events Rain    
Averages and records for this station are not official NWS values.
T = Trace of Precipitation, MM = Missing Value Source: NWS Daily Summary

Daily Weather History Graph

Daily Weather History Graph

Search for Another Location

Airport:

Trip Planner

Search our weather history database for the weather conditions in past years. The results will help you decide how hot, cold, wet, or windy it might be!

Date:

Astronomy

Oct. 17, 2012 Rise Set
Actual Time 7:33 AM CDT 6:22 PM CDT
Civil Twilight 7:03 AM CDT 6:52 PM CDT
Nautical Twilight 6:28 AM CDT 7:27 PM CDT
Astronomical Twilight 5:53 AM CDT 8:01 PM CDT
Moon 10:18 AM CDT (10/17) 7:48 PM CDT (10/17)
Length of Visible Light 11h 49m
Length of Day
10h 49m
Waxing Crescent, 7% of the Moon is Illuminated
Oct 17
Waxing Crescent
Oct 21
First Quarter
Oct 29
Full
Nov 6
Last Quarter
Nov 13
New

Hourly Weather History & Observations

Time (CDT) Temp. Windchill Dew Point Humidity Pressure Visibility Wind Dir Wind Speed Gust Speed Precip Events Conditions
12:01 AM 46.4 °F - 44.6 °F 93% 29.39 in 10.0 mi Calm Calm - N/A   Clear
12:21 AM 46.4 °F - 42.8 °F 87% 29.38 in 10.0 mi Calm Calm - N/A   Clear
12:41 AM 44.6 °F - 42.8 °F 93% 29.37 in 10.0 mi Calm Calm - N/A   Clear
1:01 AM 44.6 °F - 42.8 °F 93% 29.38 in 10.0 mi Calm Calm - N/A   Clear
1:21 AM 42.8 °F - 39.2 °F 87% 29.36 in 10.0 mi Calm Calm - N/A   Clear
1:41 AM 42.8 °F - 41.0 °F 93% 29.36 in 10.0 mi Calm Calm - N/A   Clear
2:01 AM 44.6 °F - 42.8 °F 93% 29.35 in 10.0 mi Calm Calm - N/A   Clear
2:21 AM 44.6 °F - 42.8 °F 93% 29.36 in 7.0 mi Calm Calm - N/A   Clear
2:41 AM 42.8 °F - 41.0 °F 93% 29.35 in 7.0 mi Calm Calm - N/A   Clear
3:00 AM 42.8 °F - 41.0 °F 93% 29.35 in 7.0 mi Calm Calm - N/A   Clear
3:21 AM 41.0 °F - 37.4 °F 87% 29.34 in 7.0 mi Calm Calm - N/A   Clear
3:40 AM 39.2 °F - 37.4 °F 93% 29.33 in 7.0 mi Calm Calm - N/A   Clear
4:01 AM 39.2 °F - 37.4 °F 93% 29.32 in 7.0 mi Calm Calm - N/A   Clear
4:21 AM 39.2 °F - 37.4 °F 93% 29.32 in 7.0 mi Calm Calm - N/A   Clear
4:39 AM 41.0 °F - 37.4 °F 87% 29.31 in 7.0 mi Calm Calm - N/A   Clear
5:01 AM 44.6 °F - 42.8 °F 93% 29.30 in 10.0 mi Calm Calm - N/A   Clear
5:21 AM 44.6 °F 42.2 °F 42.8 °F 93% 29.30 in 10.0 mi ESE 4.6 mph - N/A   Clear
5:40 AM 44.6 °F 43.1 °F 42.8 °F 93% 29.29 in 10.0 mi East 3.5 mph - N/A   Clear
6:01 AM 44.6 °F 41.4 °F 42.8 °F 93% 29.26 in 10.0 mi East 5.8 mph - N/A   Clear
6:21 AM 46.4 °F 42.9 °F 44.6 °F 93% 29.25 in 10.0 mi ESE 6.9 mph - N/A   Clear
6:41 AM 46.4 °F 44.3 °F 44.6 °F 93% 29.24 in 10.0 mi East 4.6 mph - N/A   Clear
7:01 AM 48.2 °F - 44.6 °F 87% 29.23 in 10.0 mi East 4.6 mph - N/A   Clear
7:21 AM 48.2 °F - 44.6 °F 87% 29.22 in 10.0 mi East 6.9 mph - N/A Rain Light Rain
7:41 AM 48.2 °F - 44.6 °F 87% 29.23 in 10.0 mi ESE 3.5 mph - N/A   Clear
8:01 AM 48.2 °F - 44.6 °F 87% 29.20 in 10.0 mi East 5.8 mph - N/A   Scattered Clouds
8:21 AM 48.2 °F - 44.6 °F 87% 29.18 in 10.0 mi East 5.8 mph - N/A   Scattered Clouds
8:41 AM 50.0 °F - 46.4 °F 87% 29.18 in 10.0 mi East 4.6 mph - N/A Rain Light Rain
9:21 AM 50.0 °F - 46.4 °F 87% 29.17 in 10.0 mi East 6.9 mph - N/A   Scattered Clouds
9:40 AM 50.0 °F - 46.4 °F 87% 29.18 in 10.0 mi ESE 8.1 mph - N/A   Scattered Clouds
10:01 AM 50.0 °F - 46.4 °F 87% 29.15 in 10.0 mi ESE 12.7 mph 21.9 mph N/A Rain Light Rain
10:21 AM 51.8 °F - 46.4 °F 82% 29.15 in 10.0 mi ESE 6.9 mph - N/A   Clear
10:41 AM 53.6 °F - 46.4 °F 77% 29.13 in 10.0 mi ESE 6.9 mph - N/A   Clear
11:00 AM 53.6 °F - 46.4 °F 77% 29.13 in 10.0 mi SE 8.1 mph - N/A   Clear
11:21 AM 55.4 °F - 46.4 °F 72% 29.12 in 10.0 mi SE 9.2 mph - N/A   Clear
11:41 AM 57.2 °F - 46.4 °F 67% 29.11 in 10.0 mi SSE 10.4 mph 16.1 mph N/A   Clear
12:01 PM 59.0 °F - 46.4 °F 63% 29.12 in 10.0 mi South 13.8 mph 20.7 mph N/A   Clear
12:21 PM 60.8 °F - 46.4 °F 59% 29.11 in 10.0 mi South 13.8 mph 21.9 mph N/A   Clear
12:41 PM 60.8 °F - 46.4 °F 59% 29.11 in 10.0 mi South 15.0 mph 28.8 mph N/A   Clear
1:01 PM 64.4 °F - 46.4 °F 52% 29.11 in 10.0 mi South 19.6 mph 26.5 mph N/A   Scattered Clouds
1:20 PM 64.4 °F - 46.4 °F 52% 29.11 in 10.0 mi SSW 20.7 mph 27.6 mph N/A   Scattered Clouds
1:41 PM 64.4 °F - 46.4 °F 52% 29.11 in 10.0 mi SW 20.7 mph 26.5 mph N/A   Scattered Clouds
2:01 PM 59.0 °F - 44.6 °F 59% 29.13 in 10.0 mi WSW 15.0 mph 28.8 mph N/A   Mostly Cloudy
2:21 PM 55.4 °F - 44.6 °F 67% 29.15 in 10.0 mi WSW 19.6 mph 28.8 mph N/A   Mostly Cloudy
2:41 PM 53.6 °F - 44.6 °F 72% 29.18 in 10.0 mi West 15.0 mph 25.3 mph N/A   Overcast
3:01 PM 53.6 °F - 44.6 °F 72% 29.18 in 10.0 mi WSW 12.7 mph 19.6 mph N/A   Overcast
3:21 PM 53.6 °F - 44.6 °F 72% 29.18 in 10.0 mi WSW 13.8 mph 19.6 mph N/A   Mostly Cloudy
3:40 PM 53.6 °F - 42.8 °F 67% 29.19 in 10.0 mi WSW 15.0 mph 21.9 mph N/A   Mostly Cloudy
4:01 PM 53.6 °F - 42.8 °F 67% 29.20 in 10.0 mi SW 11.5 mph 18.4 mph N/A   Mostly Cloudy
4:21 PM 53.6 °F - 42.8 °F 67% 29.21 in 10.0 mi WSW 13.8 mph 21.9 mph N/A   Overcast
4:41 PM 53.6 °F - 42.8 °F 67% 29.22 in 10.0 mi WSW 10.4 mph 17.3 mph N/A   Overcast
5:01 PM 53.6 °F - 42.8 °F 67% 29.22 in 10.0 mi SW 9.2 mph 18.4 mph N/A   Overcast
5:20 PM 53.6 °F - 41.0 °F 62% 29.23 in 10.0 mi WSW 10.4 mph 19.6 mph N/A   Overcast
5:41 PM 53.6 °F - 41.0 °F 62% 29.23 in 10.0 mi WSW 9.2 mph - N/A   Overcast
6:01 PM 53.6 °F - 41.0 °F 62% 29.24 in 10.0 mi SW 9.2 mph - N/A   Overcast
6:21 PM 53.6 °F - 41.0 °F 62% 29.23 in 10.0 mi SW 8.1 mph - N/A   Overcast
6:41 PM 53.6 °F - 41.0 °F 62% 29.24 in 10.0 mi SW 5.8 mph - N/A   Overcast
7:00 PM 51.8 °F - 39.2 °F 62% 29.24 in 10.0 mi SSW 5.8 mph - N/A   Mostly Cloudy
7:21 PM 50.0 °F - 39.2 °F 66% 29.25 in 10.0 mi South 5.8 mph - N/A   Mostly Cloudy
7:40 PM 51.8 °F - 39.2 °F 62% 29.25 in 10.0 mi SSW 5.8 mph - N/A   Overcast
8:01 PM 50.0 °F - 39.2 °F 66% 29.25 in 10.0 mi SSW 6.9 mph - N/A   Mostly Cloudy
8:20 PM 51.8 °F - 41.0 °F 67% 29.26 in 10.0 mi SSW 5.8 mph - N/A   Overcast
8:41 PM 51.8 °F - 41.0 °F 67% 29.26 in 10.0 mi West 12.7 mph 16.1 mph N/A   Overcast
9:01 PM 50.0 °F - 42.8 °F 76% 29.27 in 10.0 mi West 11.5 mph - N/A   Overcast
9:21 PM 48.2 °F - 41.0 °F 76% 29.26 in 10.0 mi West 11.5 mph - N/A   Overcast
9:41 PM 48.2 °F - 41.0 °F 76% 29.26 in 10.0 mi West 6.9 mph - N/A   Overcast
10:01 PM 48.2 °F - 42.8 °F 82% 29.27 in 10.0 mi WSW 8.1 mph - N/A   Overcast
10:21 PM 46.4 °F 42.4 °F 41.0 °F 81% 29.26 in 10.0 mi WSW 8.1 mph - N/A   Overcast
10:41 PM 44.6 °F 42.2 °F 39.2 °F 81% 29.26 in 10.0 mi WSW 4.6 mph - N/A   Overcast
11:01 PM 44.6 °F 40.2 °F 39.2 °F 81% 29.24 in 10.0 mi West 8.1 mph - N/A   Overcast
11:21 PM 44.6 °F 40.2 °F 39.2 °F 81% 29.25 in 10.0 mi West 8.1 mph - N/A   Overcast
11:41 PM 44.6 °F 41.4 °F 37.4 °F 76% 29.25 in 10.0 mi West 5.8 mph - N/A   Overcast